Погода в Русаново

Россия / Республика Коми     62°55′49″N   56°10′24″E
темп.,
°C
ветер,
м/с
пор.,
м/с
влажн.,
%
обл.,
%
осадки,
мм/ч
давл.,
гПа
погр.,
м
12 апреля, пн
пн1200:00+1зюз412845 0.0 1025467
03:00+1зюз413805 0.0 1026569
06:00+1з5128213 0.0 1028904
09:00+4з5117812 0.0 10301099
12:00+4зсз51075100 0.2 10321278
15:00+4з51173100 0.2 10341279
18:00+2зюз25865 0.0 103485
21:00+2зюз4138549 0.0 1035402
13 апреля, вт
вт1300:00+1юз31181100 0.0 1034334
03:00+3юз41574100 0.0 1032639
06:00+4зюз5158398 0.0 1031650
09:00+7зюз5138348 0.0 1030688
12:00+8юз51375100 0.0 1029668
15:00+7ююз51470100 0.0 1026706
18:00+7юз51486100 0.1 1023907
21:00+8зюз51391100 0.1 1023768
14 апреля, ср
ср1400:00+7зюз41193100 0.4 1022592
03:00+7зюз31096100 0.9 1023415
06:00+7юз3998100 0.1 1022333
09:00+7ююз3998100 0.3 1022396
12:00+8юз41294100 0.7 1021552
15:00+11зюз4108499 1.0 1019387
18:00+11зюз398326 0.0 1018236
21:00+10юз5167799 0.0 1016560
15 апреля, чт
чт1500:00+10юз61678100 0.0 1014651
03:00+9юз51580100 0.0 1013624
06:00+9зюз51378100 0.0 1012879
09:00+2ссз3897100 1.6 1016393
12:00+3сз3795100 0.6 1018428
15:00+5сз4755100 0.8 10191509
18:00+3ссз4853100 0.0 1020721
21:000с4870100 0.0 1022661
16 апреля, пт
пт1600:00−2ссв37735 0.0 1024835
03:00−4ссв37675 0.0 1026790
06:00−3ссв46535 0.0 1027905
09:00−2ссв45344 0.0 10281062
12:000ссв45265 0.0 10281280
15:000ссв34280 0.0 10281229
18:00−1с234151 0.0 1028112
21:00−2св1147100 0.0 102943